When you browse on this site, cookies collect data to enhance your experience and personalize the content and advertising you see.
Visit our Privacy Policy to learn more. By continuing to use the site, you agree to this use of cookies and data.
  • In Spain
  • List of Countries
  • For 7 days
  • Water Temperature
  • Satellite Maps
  • Weather Map
  • Weather Widgets
  • user-avatar
    Login

    Hourly Weather Tabuk

    Today, 22 April, Monday

    Time Temperature Precipitation Wind Pressure Humidity
    00:00 +11°C° 0 mm 4 mps 685 mmHg 39%
    01:00 +10°C° 0 mm 3 mps 685 mmHg 41%
    02:00 +10°C° 0 mm 3 mps 684 mmHg 39%
    03:00 +10°C° 0 mm 2 mps 685 mmHg 41%
    04:00 +9°C° 0 mm 2 mps 685 mmHg 43%
    05:00 +9°C° 0 mm 2 mps 685 mmHg 44%
    06:00 +10°C° 0 mm 2 mps 685 mmHg 40%
    07:00 +12°C° 0 mm 2 mps 685 mmHg 35%
    08:00 +13°C° 0 mm 2 mps 685 mmHg 29%
    09:00 +15°C° 0 mm 1 mps 686 mmHg 24%
    10:00 +18°C° 0 mm 1 mps 686 mmHg 19%
    11:00 +20°C° 0 mm 1 mps 686 mmHg 14%
    12:00 +21°C° 0 mm 1 mps 686 mmHg 12%
    13:00 +23°C° 0 mm 1 mps 686 mmHg 10%
    14:00 +24°C° 0 mm 2 mps 686 mmHg 7%
    15:00 +24°C° 0 mm 3 mps 686 mmHg 7%
    16:00 +25°C° 0 mm 3 mps 686 mmHg 6%
    17:00 +25°C° 0 mm 4 mps 687 mmHg 6%
    18:00 +22°C° 0 mm 5 mps 686 mmHg 8%
    19:00 +20°C° 0 mm 6 mps 686 mmHg 11%
    20:00 +18°C° 0 mm 7 mps 686 mmHg 13%
    21:00 +16°C° 0 mm 6 mps 687 mmHg 17%
    22:00 +15°C° 0 mm 5 mps 687 mmHg 20%
    23:00 +14°C° 0 mm 4 mps 687 mmHg 24%

    Tomorrow, 23 April, Tuesday

    Time Temperature Precipitation Wind Pressure Humidity
    00:00 +14°C° 0 mm 4 mps 687 mmHg 26%
    01:00 +13°C° 0 mm 3 mps 687 mmHg 28%
    02:00 +12°C° 0 mm 3 mps 687 mmHg 29%
    03:00 +12°C° 0 mm 3 mps 687 mmHg 30%
    04:00 +12°C° 0 mm 2 mps 687 mmHg 31%
    05:00 +12°C° 0 mm 2 mps 687 mmHg 32%
    06:00 +12°C° 0 mm 3 mps 688 mmHg 29%
    07:00 +14°C° 0 mm 4 mps 688 mmHg 27%
    08:00 +15°C° 0 mm 5 mps 689 mmHg 24%
    09:00 +17°C° 0 mm 5 mps 689 mmHg 21%
    10:00 +19°C° 0 mm 5 mps 690 mmHg 19%
    11:00 +21°C° 0 mm 5 mps 690 mmHg 16%
    12:00 +22°C° 0 mm 4 mps 690 mmHg 14%
    13:00 +23°C° 0 mm 4 mps 690 mmHg 12%
    14:00 +26°C° 0 mm 4 mps 689 mmHg 10%
    15:00 +26°C° 0 mm 4 mps 689 mmHg 10%
    16:00 +26°C° 0 mm 4 mps 689 mmHg 10%
    17:00 +26°C° 0 mm 4 mps 689 mmHg 9%
    18:00 +23°C° 0 mm 4 mps 689 mmHg 10%
    19:00 +22°C° 0 mm 4 mps 689 mmHg 11%
    20:00 +21°C° 0 mm 4 mps 689 mmHg 12%
    21:00 +20°C° 0 mm 4 mps 689 mmHg 13%
    22:00 +20°C° 0 mm 4 mps 689 mmHg 13%
    23:00 +19°C° 0 mm 4 mps 689 mmHg 14%

    Day after tomorrow, 24 April, Wednesday

    Time Temperature Precipitation Wind Pressure Humidity
    00:00 +18°C° 0 mm 4 mps 689 mmHg 15%
    01:00 +17°C° 0 mm 4 mps 689 mmHg 16%
    02:00 +17°C° 0 mm 4 mps 689 mmHg 17%
    03:00 +15°C° 0 mm 4 mps 689 mmHg 18%
    04:00 +16°C° 0 mm 3 mps 689 mmHg 18%
    05:00 +14°C° 0 mm 3 mps 689 mmHg 19%
    06:00 +16°C° 0 mm 5 mps 690 mmHg 17%
    07:00 +19°C° 0 mm 6 mps 690 mmHg 15%
    08:00 +20°C° 0 mm 7 mps 691 mmHg 13%
    09:00 +22°C° 0 mm 7 mps 691 mmHg 12%
    10:00 +24°C° 0 mm 7 mps 691 mmHg 10%
    11:00 +27°C° 0 mm 7 mps 691 mmHg 9%
    12:00 +28°C° 0 mm 6 mps 691 mmHg 8%
    13:00 +29°C° 0 mm 6 mps 690 mmHg 7%
    14:00 +30°C° 0 mm 5 mps 690 mmHg 7%
    15:00 +29°C° 0 mm 5 mps 689 mmHg 7%
    16:00 +29°C° 0 mm 5 mps 689 mmHg 7%
    17:00 +29°C° 0 mm 5 mps 689 mmHg 7%
    18:00 +28°C° 0 mm 5 mps 689 mmHg 7%
    19:00 +27°C° 0 mm 5 mps 689 mmHg 8%
    20:00 +25°C° 0 mm 5 mps 689 mmHg 9%
    21:00 +23°C° 0 mm 5 mps 689 mmHg 10%
    22:00 +22°C° 0 mm 5 mps 689 mmHg 10%
    23:00 +22°C° 0 mm 5 mps 689 mmHg 11%

    25 April, Thursday

    Time Temperature Precipitation Wind Pressure Humidity
    00:00 +21°C° 0 mm 5 mps 689 mmHg 12%
    01:00 +20°C° 0 mm 4 mps 688 mmHg 13%
    02:00 +19°C° 0 mm 4 mps 688 mmHg 14%
    03:00 +19°C° 0 mm 4 mps 688 mmHg 15%
    04:00 +18°C° 0 mm 3 mps 688 mmHg 16%
    05:00 +17°C° 0 mm 3 mps 688 mmHg 16%
    06:00 +19°C° 0 mm 4 mps 688 mmHg 15%
    07:00 +21°C° 0 mm 5 mps 689 mmHg 13%
    08:00 +23°C° 0 mm 6 mps 689 mmHg 12%
    09:00 +26°C° 0 mm 6 mps 689 mmHg 10%
    10:00 +28°C° 0 mm 6 mps 690 mmHg 9%
    11:00 +30°C° 0 mm 7 mps 690 mmHg 8%
    12:00 +30°C° 0 mm 6 mps 689 mmHg 7%
    13:00 +32°C° 0 mm 5 mps 689 mmHg 7%
    14:00 +33°C° 0 mm 5 mps 688 mmHg 7%
    15:00 +33°C° 0 mm 5 mps 688 mmHg 7%
    16:00 +32°C° 0 mm 5 mps 688 mmHg 7%
    17:00 +32°C° 0 mm 6 mps 687 mmHg 7%
    18:00 +30°C° 0 mm 5 mps 687 mmHg 7%
    19:00 +28°C° 0 mm 5 mps 687 mmHg 8%
    20:00 +27°C° 0 mm 5 mps 687 mmHg 9%
    21:00 +26°C° 0 mm 5 mps 687 mmHg 10%
    22:00 +25°C° 0 mm 5 mps 687 mmHg 10%
    23:00 +23°C° 0 mm 4 mps 687 mmHg 11%

    26 April, Friday

    Time Temperature Precipitation Wind Pressure Humidity
    00:00 +22°C° 0 mm 4 mps 687 mmHg 12%
    01:00 +22°C° 0 mm 4 mps 686 mmHg 13%
    02:00 +21°C° 0 mm 4 mps 686 mmHg 14%
    03:00 +20°C° 0 mm 3 mps 686 mmHg 15%
    04:00 +19°C° 0 mm 3 mps 686 mmHg 16%
    05:00 +19°C° 0 mm 3 mps 686 mmHg 16%
    06:00 +21°C° 0 mm 4 mps 686 mmHg 15%
    07:00 +23°C° 0 mm 5 mps 687 mmHg 13%
    08:00 +26°C° 0 mm 6 mps 687 mmHg 11%
    09:00 +27°C° 0 mm 6 mps 687 mmHg 10%
    10:00 +29°C° 0 mm 5 mps 688 mmHg 9%
    11:00 +32°C° 0 mm 5 mps 688 mmHg 8%
    12:00 +32°C° 0 mm 5 mps 687 mmHg 8%
    13:00 +33°C° 0 mm 4 mps 686 mmHg 7%
    14:00 +33°C° 0 mm 4 mps 686 mmHg 7%
    15:00 +33°C° 0 mm 4 mps 685 mmHg 7%
    16:00 +33°C° 0 mm 5 mps 685 mmHg 7%
    17:00 +33°C° 0 mm 6 mps 685 mmHg 7%
    18:00 +30°C° 0 mm 5 mps 685 mmHg 8%
    19:00 +29°C° 0 mm 4 mps 685 mmHg 9%
    20:00 +27°C° 0 mm 4 mps 685 mmHg 10%
    21:00 +27°C° 0 mm 4 mps 685 mmHg 10%
    22:00 +26°C° 0 mm 4 mps 685 mmHg 11%
    23:00 +25°C° 0 mm 4 mps 685 mmHg 12%

    27 April, Saturday

    Time Temperature Precipitation Wind Pressure Humidity
    00:00 +23°C° 0 mm 4 mps 684 mmHg 14%
    01:00 +22°C° 0 mm 4 mps 684 mmHg 16%
    02:00 +21°C° 0 mm 4 mps 683 mmHg 18%
    03:00 +21°C° 0 mm 3 mps 683 mmHg 20%
    04:00 +20°C° 0 mm 3 mps 683 mmHg 21%
    05:00 +19°C° 0 mm 3 mps 683 mmHg 23%
    06:00 +21°C° 0 mm 3 mps 684 mmHg 21%
    07:00 +22°C° 0 mm 4 mps 684 mmHg 19%
    08:00 +25°C° 0 mm 4 mps 685 mmHg 17%
    09:00 +26°C° 0 mm 4 mps 685 mmHg 15%
    10:00 +28°C° 0 mm 3 mps 685 mmHg 14%
    11:00 +29°C° 0 mm 3 mps 685 mmHg 12%
    12:00 +30°C° 0 mm 3 mps 684 mmHg 11%
    13:00 +32°C° 0 mm 4 mps 684 mmHg 11%
    14:00 +33°C° 0 mm 4 mps 684 mmHg 10%
    15:00 +33°C° 0 mm 5 mps 684 mmHg 10%
    16:00 +32°C° 0 mm 5 mps 684 mmHg 10%
    17:00 +32°C° 0 mm 6 mps 684 mmHg 11%
    18:00 +29°C° 0 mm 7 mps 684 mmHg 13%
    19:00 +28°C° 0 mm 8 mps 684 mmHg 16%
    20:00 +26°C° 0 mm 8 mps 684 mmHg 18%
    21:00 +24°C° 0 mm 7 mps 685 mmHg 20%
    22:00 +23°C° 0 mm 5 mps 685 mmHg 23%
    23:00 +22°C° 0 mm 4 mps 685 mmHg 25%
    Show more